Погода в Термезе

Погода в Термезе : погода сейчас, прогноз погоды и архив. Всё, что Вы хотите узнать о погоде в Термезе!

Поиск расширенной информации на нашем сайте:

Полезная информация: Общие сведения о котлах Buderus

Другие новости

Новости СМИ2

Главная страница сайта

Новости сайта

02.10.2013

Напоминаем, что на нашем новом сайте вы можете получить высокодетализированные прогнозы погоды по пунктам России, СНГ и мира (включающие важные для авиации метеовеличины, такие как направление и скорость ветра, видимость, явления погоды, количество и форма облачности, нижняя и верхняя граница облачности), а также ознакомиться с разнообразными материалами по авиационной метеорологии и подборкой полезных ссылок на эту тему.

Сайт Метеоцентр.Азия посвящён разработке технологий оптимизации авиаметеорологического обслуживания, включая проектирование и перспективное создание нескольких автоматизированных авиаметеорологических систем:
- система выпуска высокодетальных прогностических карт явлений погоды для нижнего воздушного пространства по России и ближнему зарубежью;
- система верификации прогнозов TAF (выпускаемых синоптиками официальных АМСГ РФ и ближнего зарубежья) и AUTOTAF (выпускаемых сайтом Метеоцентр.Азия) - выявление ошибок, онлайн-сопоставление с фактической погодой METAR, автоматическое внесение коррективов в прогнозы при резком отклонении фактической погоды от прогноза, подсчёт оправдываемости прогнозов по элементам и в целом;
- система обработки, анализа и отображения авиаметеорологической информации для применения провайдерами метеорологической информации.

Рекомендуем: Бесплатная доставка обедов в офис вкусный ланч доставка обедов в офис.

Погода в Термезе - сегодня

Время (UTC), дата Ветер
(°,м/с) 
Видим.   Явления Облачность Т
(°С)
Тd
(°С)
f(%) Тe
(°С)
Pmin
(гПа)
dP
(гПа)
Po
(мм)
O2
(г/м3)
Тmin Tmax R s Состояние
почвы
15 25.05.17 020 (С) 10 км    ясно 
+32.9 +9.4 24 +34  1004.2  0.4  728  260    +40.8       
18 25.05.17 020 (С) 10 км    3/0 средняя 
[Ac trans]
+27.4 +13.4 42 +34  1006.1  1.4  729  264    +40.8       
21 25.05.17 040 (СВ) 10 км    ясно 
+27.6 +8.9 31 +28  1006.7  0.5  729  265           
00 26.05.17 270 (З) 10 км    ясно 
+20.5 +11.7 57 +25  1008.5  730  271           
03 26.05.17 230 (ЮЗ) 10 км    ясно 
+27.6 +13 41 +34  1009.5  1.7  731  265           
06 26.05.17 300 (СЗ) 10 км    ясно 
+34.6 +10.4 23 +37  1008.7  731  260  +19.1         
09 26.05.17 220 (ЮЗ) 10 км    ясно 
+39.6 +2.7 10 +40  1006.8  -1.4  730  256           
12 26.05.17 260 (З) 10 км    ясно 
+39.4 +4.6 12 +39  1005.1  -1.5  729  256           
15 26.05.17 230 (ЮЗ) 10 км    ясно 
+30.8 +7.7 24 +31  1005.5  -0.6  728  262    +40.4       
18 26.05.17 050 (СВ) 10 км    ясно 
+26 +12.3 43 +31  1007.1  1.1  729  266    +40.4       
21 26.05.17 010 (С) 10 км    ясно 
+22.8 +10 44 +25  1007.5  -0.1  729  269           
00 27.05.17 040 (СВ) 10 км    ясно 
+22.4 +9.9 45 +24  1007.9  0.4  729  270           
06 27.05.17 170 (Ю) 10 км    ясно 
+35 +7.4 18 +35  1008.1  -0.3  731  260  +18.9         
09 27.05.17 120 (ЮВ) 10 км    3/3 2000 м 
[Cu hum]
+39 +5.1 13 +39  1005.7  -1.9  729  256           
12 27.05.17 250 (З) 10 км    3/3 2000 м 
[Cu hum]
+39.8 +4.8 12 +40  1003.6  -1.9  728  255           
15 27.05.17 340 (С) 10 км    ясно 
+33.2 +13.9 31 +41  1003.5  -0.7  727  259    +40.6       
18 27.05.17 300 (СЗ) 10 км    ясно 
+27.2 +12.9 41 +33  1005.1  0.9  728  264    +40.6       
21 27.05.17 040 (СВ) 10 км    ясно 
+23.2 +12.1 50 +28  1004.9  -0.6  727  268           
00 28.05.17 060 (СВ) 10 км    ясно 
+20 +13.9 68 +28  1006.1  0.7  728  270           
06 28.05.17 150 (ЮВ) 10 км    ясно 
+36.1 +6.7 16 +36  1005.1  -0.4  729  258  +18.7         
09 28.05.17 210 (ЮЗ) 10 км    4/4 2000 м 
[Cu med, cong]
+40.8 +4.3 11 +41  1003.5  -1.1  728  254           
15 28.05.17 180 (Ю) 10 км    3/0 средняя 
[Ac trans]
+33.5 +11 25 +37  1003  0.3  727  259    +41.8       
18 28.05.17 260 (З) 10 км    ясно 
+28.4 +10.6 33 +31  1004.9  1.3  728  264    +41.8       
21 28.05.17 030 (СВ) 10 км    ясно 
+22.5 +7.6 38 +23  1005.6  728  270           
00 29.05.17 030 (СВ) 10 км    ясно 
+20.7 +7.8 43 +21  1005.9  728  271           
Время (UTC), дата Ветер
(°,м/с) 
Видим.   Явления Облачность Т
(°С)
Тd
(°С)
f(%) Тe
(°С)
Pmin
(гПа)
dP
(гПа)
Po
(мм)
O2
(г/м3)
Тmin Tmax R s Состояние
почвы

Для получения пояснительной информации подведите курсор к названию столбца.

ПОГОДА в Термезе - архив

Всё, что Вы хотите узнать о погоде в Термезе - удобно и подробно!

Выберите нужную дату (начиная с 1 января 2015* года) и нажмите кнопку "Найти".
Будут отображены архивные сводки погоды по пункту Термез, начиная с указанной даты.


Отображать данные в формате CSV (для использования в таблицах Excel)


Внимание! Наш архив погоды предназначен исключительно для личного некоммерческого использования в познавательных целях. Если Вам необходимы официальные справки о состоянии погоды (для производственных, юридических, коммерческих и т.п. целей), обращайтесь в органы Росгидромета.

*Примечание: данная дата относится к архиву по метеостанциям СССР (Россия, СНГ, Балтия).
Архив по метеостанциям Зарубежной Европы и Азии (кроме Китая) хранится 10 дней, по другим регионам земного шара (Китай, Африка, Америка, Австралия, Океания) - 1 день.

Термез - район местоположения метеостанции


Название, широта, долгота, высота метеостанции:
Термез 37.2°ш. 67.3°д. 310 м над ур. моря [Узбекистан]

Дополнительная информация

В oтличие oт бoльшинства пoгoдных сайтoв мы публикуем пoдрoбную метеoинфoрмацию в детальнoм прoфессиoнальнoм фoрмате.

Характеристики температуры и влажнoсти вoздуха измеряются на высoте 2 м в тени вдали oт зданий и деревьев.
Скoрoсть ветра измеряется на высoте 10 м (на урoвне рoста челoвека скoрoсть ветра ниже в 1.5-2 раза). Если метеoстанция нахoдится в гoрoде или в лесу, тo скoрoсть ветра занижена на 2-4 м/с пo сравнению с oткрытым местoм. Скoрoсть ветра над акватoриями крупных рек и oзёр, а также на вершинах хoлмoв на 2-5 м/с выше, чем в oбычных услoвиях.
Атмoсфернoе давление в разных тoчках местнoсти мoжет значительнo oтличаться oт давления на метеoстанции, в зависимoсти oт услoвий рельефа (при пoдъёме на 10 м давление пoнижается примернo на 1 мм рт.ст.).